| time (UTC) | temp F | wind direction | speed MPH | gust MPH | rain 1hr in | rain 24hr in | rain mn in | humidity % | barometer mb |
| 20260509005037 | 62 | 0 | 1.0 | 3.0 | 0.00 | 0.01 | 0.01 | 71 | 1013.0 |
| 20260509004553 | 62 | 44 | 0.0 | 3.0 | 0.00 | 0.01 | 0.01 | 71 | 1013.0 |
| 20260509004038 | 63 | 0 | 0.0 | 4.0 | 0.00 | 0.01 | 0.01 | 69 | 1013.1 |
| 20260509003539 | 63 | 315 | 0.0 | 4.0 | 0.00 | 0.01 | 0.01 | 69 | 1013.2 |
| 20260509003047 | 63 | 255 | 0.0 | 4.0 | 0.00 | 0.01 | 0.01 | 70 | 1013.3 |
| 20260509002539 | 63 | 229 | 0.0 | 3.0 | 0.00 | 0.01 | 0.01 | 70 | 1013.2 |
| 20260509002042 | 63 | 0 | 0.0 | 4.0 | 0.00 | 0.01 | 0.01 | 70 | 1013.1 |
| 20260509001549 | 63 | 0 | 1.0 | 4.0 | 0.00 | 0.01 | 0.01 | 69 | 1013.1 |
| 20260509001039 | 63 | 61 | 0.0 | 4.0 | 0.00 | 0.01 | 0.01 | 69 | 1013.0 |
| 20260509000540 | 64 | 0 | 0.0 | 4.0 | 0.00 | 0.01 | 0.01 | 68 | 1012.8 |
| 20260509000052 | 64 | 0 | 0.0 | 2.0 | 0.00 | 0.01 | 0.01 | 68 | 1012.9 |
| 20260508235538 | 64 | 79 | 0.0 | 4.0 | 0.00 | 0.01 | 0.01 | 68 | 1012.9 |
| 20260508235038 | 64 | 291 | 1.0 | 4.0 | 0.00 | 0.01 | 0.01 | 67 | 1012.8 |
| 20260508234553 | 64 | 0 | 1.0 | 5.0 | 0.00 | 0.01 | 0.01 | 67 | 1012.9 |
| 20260508234042 | 64 | 0 | 1.0 | 6.0 | 0.00 | 0.01 | 0.01 | 68 | 1012.9 |
| 20260508233539 | 64 | 262 | 3.0 | 6.0 | 0.00 | 0.01 | 0.01 | 66 | 1013.0 |
| 20260508233051 | 65 | 261 | 2.0 | 8.0 | 0.00 | 0.01 | 0.01 | 66 | 1013.0 |
| 20260508232538 | 65 | 236 | 3.0 | 8.0 | 0.00 | 0.01 | 0.01 | 65 | 1013.0 |
| 20260508232039 | 65 | 292 | 3.0 | 8.0 | 0.00 | 0.01 | 0.01 | 65 | 1012.8 |
| 20260508231548 | 65 | 271 | 3.0 | 8.0 | 0.00 | 0.01 | 0.01 | 66 | 1012.8 |
| 20260508231038 | 65 | 312 | 3.0 | 8.0 | 0.00 | 0.01 | 0.01 | 64 | 1012.9 |
| 20260508230538 | 65 | 309 | 5.0 | 10.0 | 0.00 | 0.01 | 0.01 | 65 | 1012.8 |
| 20260508230051 | 65 | 268 | 3.0 | 10.0 | 0.00 | 0.01 | 0.01 | 65 | 1012.8 |
| 20260508225538 | 65 | 281 | 4.0 | 12.0 | 0.00 | 0.01 | 0.01 | 65 | 1013.0 |
| 20260508225039 | 66 | 264 | 5.0 | 12.0 | 0.00 | 0.01 | 0.01 | 64 | 1013.0 |
| 20260508224558 | 66 | 297 | 7.0 | 11.0 | 0.00 | 0.01 | 0.01 | 63 | 1013.1 |
| 20260508224038 | 66 | 282 | 7.0 | 10.0 | 0.00 | 0.01 | 0.01 | 63 | 1013.1 |
| 20260508223538 | 66 | 257 | 6.0 | 10.0 | 0.00 | 0.01 | 0.01 | 62 | 1013.1 |
| 20260508223052 | 66 | 227 | 5.0 | 9.0 | 0.00 | 0.01 | 0.01 | 61 | 1013.0 |
| 20260508222539 | 66 | 252 | 4.0 | 8.0 | 0.00 | 0.01 | 0.01 | 64 | 1012.9 |
| 20260508222041 | 66 | 236 | 2.0 | 10.0 | 0.00 | 0.01 | 0.01 | 61 | 1012.9 |
| 20260508221558 | 66 | 0 | 2.0 | 10.0 | 0.00 | 0.01 | 0.01 | 60 | 1012.9 |
| 20260508221039 | 66 | 253 | 6.0 | 10.0 | 0.00 | 0.01 | 0.01 | 60 | 1012.8 |
| 20260508220539 | 66 | 248 | 3.0 | 11.0 | 0.00 | 0.01 | 0.01 | 60 | 1012.7 |
| 20260508220046 | 66 | 237 | 6.0 | 11.0 | 0.00 | 0.01 | 0.01 | 57 | 1012.8 |
| 20260508215537 | 66 | 250 | 8.0 | 13.0 | 0.00 | 0.01 | 0.01 | 58 | 1012.7 |
| 20260508215042 | 66 | 262 | 8.0 | 13.0 | 0.00 | 0.01 | 0.01 | 60 | 1012.8 |
| 20260508214550 | 66 | 254 | 7.0 | 12.0 | 0.00 | 0.01 | 0.01 | 61 | 1012.7 |
| 20260508214038 | 66 | 257 | 8.0 | 12.0 | 0.00 | 0.01 | 0.01 | 59 | 1012.6 |
| 20260508213538 | 67 | 271 | 8.0 | 14.0 | 0.00 | 0.01 | 0.01 | 58 | 1012.5 |
| 20260508213045 | 67 | 254 | 9.0 | 14.0 | 0.00 | 0.01 | 0.01 | 56 | 1012.5 |
| 20260508212541 | 67 | 261 | 9.0 | 12.0 | 0.00 | 0.01 | 0.01 | 57 | 1012.6 |
| 20260508212042 | 67 | 267 | 6.0 | 11.0 | 0.00 | 0.01 | 0.01 | 59 | 1012.4 |
| 20260508211550 | 67 | 275 | 7.0 | 11.0 | 0.00 | 0.01 | 0.01 | 58 | 1012.5 |
| 20260508211040 | 67 | 241 | 2.0 | 13.0 | 0.00 | 0.01 | 0.01 | 58 | 1012.6 |
| 20260508210541 | 67 | 246 | 8.0 | 13.0 | 0.00 | 0.01 | 0.01 | 56 | 1012.9 |
| 20260508210051 | 67 | 240 | 7.0 | 12.0 | 0.00 | 0.01 | 0.01 | 58 | 1013.0 |
| 20260508205540 | 67 | 252 | 7.0 | 14.0 | 0.00 | 0.01 | 0.01 | 60 | 1012.9 |
| 20260508205040 | 67 | 263 | 10.0 | 14.0 | 0.00 | 0.01 | 0.01 | 56 | 1012.9 |
| 20260508204550 | 67 | 252 | 5.0 | 11.0 | 0.00 | 0.01 | 0.01 | 59 | 1012.8 |
| 20260508204040 | 67 | 240 | 7.0 | 12.0 | 0.00 | 0.01 | 0.01 | 57 | 1012.9 |
| 20260508203540 | 67 | 254 | 8.0 | 12.0 | 0.00 | 0.01 | 0.01 | 55 | 1012.9 |
| 20260508203052 | 67 | 267 | 9.0 | 13.0 | 0.00 | 0.01 | 0.01 | 59 | 1012.8 |
| 20260508202541 | 67 | 271 | 9.0 | 14.0 | 0.00 | 0.01 | 0.01 | 55 | 1012.8 |
| 20260508202040 | 67 | 252 | 11.0 | 16.0 | 0.00 | 0.01 | 0.01 | 56 | 1012.8 |
| 20260508201557 | 67 | 246 | 10.0 | 18.0 | 0.00 | 0.01 | 0.01 | 57 | 1012.8 |
| 20260508201040 | 67 | 247 | 10.0 | 18.0 | 0.00 | 0.01 | 0.01 | 60 | 1012.9 |
| 20260508200540 | 67 | 261 | 9.0 | 15.0 | 0.00 | 0.01 | 0.01 | 57 | 1012.9 |
| 20260508200044 | 67 | 205 | 9.0 | 15.0 | 0.00 | 0.01 | 0.01 | 57 | 1013.1 |
| 20260508195540 | 67 | 238 | 7.0 | 15.0 | 0.00 | 0.01 | 0.01 | 57 | 1013.0 |
| 20260508195042 | 67 | 246 | 10.0 | 15.0 | 0.00 | 0.01 | 0.01 | 55 | 1013.2 |
| 20260508194549 | 68 | 255 | 9.0 | 15.0 | 0.00 | 0.01 | 0.01 | 54 | 1013.4 |
| 20260508194040 | 67 | 253 | 9.0 | 14.0 | 0.00 | 0.01 | 0.01 | 51 | 1013.5 |
| 20260508193540 | 68 | 250 | 10.0 | 14.0 | 0.00 | 0.01 | 0.01 | 56 | 1013.5 |
| 20260508193053 | 68 | 266 | 9.0 | 14.0 | 0.00 | 0.01 | 0.01 | 54 | 1013.4 |
| 20260508192541 | 68 | 254 | 7.0 | 14.0 | 0.00 | 0.01 | 0.01 | 54 | 1013.5 |
| 20260508192041 | 68 | 267 | 8.0 | 14.0 | 0.00 | 0.01 | 0.01 | 53 | 1013.4 |
| 20260508191551 | 68 | 273 | 1.0 | 11.0 | 0.00 | 0.01 | 0.01 | 52 | 1013.5 |
| 20260508191040 | 68 | 247 | 5.0 | 11.0 | 0.00 | 0.01 | 0.01 | 52 | 1013.6 |
| 20260508190540 | 68 | 234 | 6.0 | 11.0 | 0.00 | 0.01 | 0.01 | 53 | 1013.7 |
| 20260508190047 | 68 | 269 | 6.0 | 10.0 | 0.00 | 0.01 | 0.01 | 54 | 1013.7 |
| 20260508185543 | 68 | 243 | 5.0 | 10.0 | 0.00 | 0.01 | 0.01 | 51 | 1013.8 |
| 20260508185040 | 68 | 0 | 2.0 | 5.0 | 0.00 | 0.01 | 0.01 | 49 | 1013.8 |
| 20260508184554 | 68 | 11 | 2.0 | 12.0 | 0.00 | 0.01 | 0.01 | 49 | 1013.9 |
| 20260508184043 | 68 | 258 | 7.0 | 12.0 | 0.00 | 0.01 | 0.01 | 49 | 1014.1 |
| 20260508183540 | 68 | 219 | 3.0 | 8.0 | 0.00 | 0.01 | 0.01 | 49 | 1014.3 |
| 20260508183052 | 68 | 271 | 3.0 | 6.0 | 0.00 | 0.01 | 0.01 | 49 | 1014.4 |
| 20260508182538 | 68 | 278 | 2.0 | 6.0 | 0.00 | 0.01 | 0.01 | 50 | 1014.3 |
| 20260508182040 | 68 | 263 | 3.0 | 5.0 | 0.00 | 0.01 | 0.01 | 50 | 1014.3 |
| 20260508181556 | 68 | 294 | 1.0 | 5.0 | 0.00 | 0.01 | 0.01 | 49 | 1014.3 |
| 20260508181039 | 68 | 0 | 2.0 | 6.0 | 0.00 | 0.01 | 0.01 | 49 | 1014.3 |
| 20260508180539 | 67 | 316 | 1.0 | 6.0 | 0.00 | 0.01 | 0.01 | 50 | 1014.3 |
| 20260508180050 | 67 | 36 | 2.0 | 5.0 | 0.00 | 0.01 | 0.01 | 51 | 1014.3 |
| 20260508175539 | 67 | 0 | 2.0 | 4.0 | 0.00 | 0.01 | 0.01 | 49 | 1014.5 |
| 20260508175039 | 67 | 333 | 1.0 | 4.0 | 0.00 | 0.01 | 0.01 | 49 | 1014.6 |
| 20260508174607 | 67 | 271 | 1.0 | 4.0 | 0.00 | 0.01 | 0.01 | 49 | 1014.8 |
| 20260508174042 | 67 | 40 | 1.0 | 5.0 | 0.00 | 0.01 | 0.01 | 49 | 1014.7 |
| 20260508173542 | 67 | 217 | 2.0 | 5.0 | 0.00 | 0.01 | 0.01 | 52 | 1014.8 |
| 20260508173052 | 67 | 137 | 2.0 | 4.0 | 0.00 | 0.01 | 0.01 | 52 | 1015.0 |
| 20260508172538 | 66 | 0 | 1.0 | 7.0 | 0.00 | 0.01 | 0.01 | 54 | 1014.7 |
| 20260508172038 | 66 | 288 | 1.0 | 7.0 | 0.00 | 0.01 | 0.01 | 53 | 1015.0 |
| 20260508171548 | 66 | 266 | 3.0 | 7.0 | 0.00 | 0.01 | 0.01 | 54 | 1015.0 |
| 20260508171042 | 65 | 215 | 1.0 | 7.0 | 0.00 | 0.01 | 0.01 | 54 | 1014.9 |
| 20260508170539 | 65 | 246 | 3.0 | 8.0 | 0.00 | 0.01 | 0.01 | 53 | 1014.9 |
| 20260508170049 | 65 | 266 | 4.0 | 8.0 | 0.00 | 0.01 | 0.01 | 52 | 1015.0 |
| 20260508165538 | 65 | 311 | 0.0 | 4.0 | 0.00 | 0.01 | 0.01 | 52 | 1015.2 |
| 20260508165042 | 65 | 0 | 1.0 | 5.0 | 0.00 | 0.01 | 0.01 | 53 | 1015.3 |
| 20260508164545 | 65 | 253 | 2.0 | 5.0 | 0.00 | 0.01 | 0.01 | 53 | 1015.4 |
| 20260508164039 | 65 | 215 | 2.0 | 5.0 | 0.00 | 0.01 | 0.01 | 53 | 1015.5 |
| 20260508163538 | 64 | 327 | 1.0 | 7.0 | 0.00 | 0.01 | 0.01 | 53 | 1015.7 |
| 20260508163051 | 64 | 0 | 1.0 | 7.0 | 0.00 | 0.01 | 0.01 | 54 | 1015.8 |
| 20260508162539 | 63 | 304 | 2.0 | 7.0 | 0.00 | 0.01 | 0.01 | 53 | 1015.7 |
| 20260508162040 | 63 | 268 | 2.0 | 4.0 | 0.00 | 0.01 | 0.01 | 54 | 1015.8 |
| 20260508161544 | 63 | 269 | 1.0 | 4.0 | 0.00 | 0.01 | 0.01 | 53 | 1015.9 |
| 20260508161038 | 63 | 0 | 0.0 | 7.0 | 0.00 | 0.01 | 0.01 | 53 | 1015.9 |
| 20260508160539 | 63 | 270 | 3.0 | 7.0 | 0.00 | 0.01 | 0.01 | 52 | 1016.0 |
| 20260508160052 | 62 | 267 | 2.0 | 6.0 | 0.00 | 0.01 | 0.01 | 55 | 1016.0 |
| 20260508155542 | 62 | 297 | 2.0 | 7.0 | 0.00 | 0.01 | 0.01 | 53 | 1016.0 |
| 20260508155039 | 62 | 265 | 3.0 | 7.0 | 0.00 | 0.01 | 0.01 | 54 | 1016.1 |
| 20260508154551 | 61 | 255 | 4.0 | 7.0 | 0.00 | 0.01 | 0.01 | 55 | 1016.1 |
| 20260508154039 | 61 | 290 | 0.0 | 5.0 | 0.00 | 0.01 | 0.01 | 63 | 1016.1 |
| 20260508153539 | 61 | 295 | 2.0 | 5.0 | 0.00 | 0.01 | 0.01 | 64 | 1016.0 |
| 20260508153053 | 60 | 281 | 1.0 | 3.0 | 0.00 | 0.01 | 0.01 | 66 | 1016.1 |
| 20260508152539 | 60 | 343 | 1.0 | 3.0 | 0.00 | 0.01 | 0.01 | 68 | 1016.2 |
| 20260508152039 | 60 | 318 | 0.0 | 3.0 | 0.00 | 0.01 | 0.01 | 68 | 1016.2 |
| 20260508151554 | 59 | 327 | 1.0 | 3.0 | 0.00 | 0.01 | 0.01 | 70 | 1016.4 |
| 20260508151039 | 59 | 0 | 1.0 | 3.0 | 0.00 | 0.01 | 0.01 | 69 | 1016.3 |
| 20260508150540 | 59 | 275 | 1.0 | 3.0 | 0.00 | 0.01 | 0.01 | 71 | 1016.4 |
| 20260508150049 | 58 | 265 | 1.0 | 3.0 | 0.00 | 0.01 | 0.01 | 73 | 1016.5 |
| 20260508145537 | 58 | 350 | 0.0 | 3.0 | 0.00 | 0.01 | 0.01 | 72 | 1016.4 |
| 20260508145038 | 58 | 317 | 1.0 | 3.0 | 0.00 | 0.01 | 0.01 | 75 | 1016.3 |
| 20260508144551 | 57 | 14 | 2.0 | 3.0 | 0.00 | 0.01 | 0.01 | 74 | 1016.4 |
| 20260508144038 | 57 | 24 | 1.0 | 3.0 | 0.00 | 0.01 | 0.01 | 76 | 1016.5 |
| 20260508143539 | 57 | 34 | 1.0 | 3.0 | 0.00 | 0.01 | 0.01 | 77 | 1016.5 |
| 20260508143056 | 57 | 30 | 1.0 | 3.0 | 0.00 | 0.01 | 0.01 | 78 | 1016.6 |
| 20260508142539 | 57 | 360 | 0.0 | 2.0 | 0.00 | 0.01 | 0.01 | 80 | 1016.5 |
| 20260508142039 | 56 | 0 | 0.0 | 2.0 | 0.00 | 0.01 | 0.01 | 81 | 1016.6 |
| 20260508141612 | 56 | 0 | 0.0 | 3.0 | 0.00 | 0.01 | 0.01 | 81 | 1016.6 |
| 20260508141039 | 56 | 0 | 0.0 | 3.0 | 0.00 | 0.01 | 0.01 | 81 | 1016.6 |
| 20260508140538 | 56 | 0 | 1.0 | 3.0 | 0.00 | 0.01 | 0.01 | 81 | 1016.6 |
| 20260508140048 | 56 | 360 | 0.0 | 3.0 | 0.00 | 0.01 | 0.01 | 83 | 1016.6 |
| 20260508135539 | 55 | 166 | 1.0 | 3.0 | 0.00 | 0.01 | 0.01 | 84 | 1016.6 |
| 20260508135040 | 54 | 0 | 1.0 | 3.0 | 0.00 | 0.01 | 0.01 | 84 | 1016.6 |
| 20260508134555 | 54 | 338 | 0.0 | 3.0 | 0.00 | 0.01 | 0.01 | 85 | 1016.6 |
| 20260508134038 | 54 | 32 | 1.0 | 3.0 | 0.00 | 0.01 | 0.01 | 85 | 1016.6 |
| 20260508133538 | 54 | 113 | 1.0 | 3.0 | 0.00 | 0.01 | 0.01 | 87 | 1016.6 |
| 20260508133043 | 53 | 51 | 0.0 | 3.0 | 0.00 | 0.01 | 0.01 | 87 | 1016.7 |
| 20260508132538 | 53 | 51 | 1.0 | 3.0 | 0.00 | 0.01 | 0.01 | 87 | 1016.8 |
| 20260508132038 | 53 | 0 | 2.0 | 3.0 | 0.00 | 0.01 | 0.01 | 88 | 1016.9 |
| 20260508131548 | 52 | 117 | 1.0 | 3.0 | 0.00 | 0.01 | 0.01 | 87 | 1017.0 |
| 20260508131039 | 52 | 97 | 0.0 | 3.0 | 0.00 | 0.01 | 0.01 | 87 | 1017.0 |
| 20260508130540 | 51 | 24 | 0.0 | 3.0 | 0.00 | 0.01 | 0.01 | 87 | 1017.0 |
| 20260508130047 | 50 | 251 | 1.0 | 4.0 | 0.01 | 0.01 | 0.01 | 87 | 1017.0 |
| 20260508125539 | 50 | 232 | 1.0 | 4.0 | 0.01 | 0.05 | 0.01 | 87 | 1017.1 |
| 20260508125039 | 52 | 246 | 0.0 | 2.0 | 0.01 | 0.05 | 0.01 | 87 | 1017.1 |
| 20260508124556 | 51 | 63 | 0.0 | 2.0 | 0.01 | 0.05 | 0.01 | 86 | 1017.0 |
| 20260508124041 | 51 | 0 | 0.0 | 2.0 | 0.01 | 0.05 | 0.01 | 87 | 1017.1 |
| 20260508123538 | 50 | 61 | 0.0 | 2.0 | 0.01 | 0.05 | 0.01 | 87 | 1017.0 |
| 20260508123052 | 50 | 355 | 0.0 | 2.0 | 0.01 | 0.05 | 0.01 | 87 | 1016.9 |
| 20260508122538 | 49 | 0 | 0.0 | 2.0 | 0.01 | 0.05 | 0.01 | 87 | 1016.7 |
| 20260508122038 | 49 | 0 | 0.0 | 2.0 | 0.01 | 0.05 | 0.01 | 87 | 1016.7 |
| 20260508121545 | 49 | 0 | 0.0 | 3.0 | 0.01 | 0.05 | 0.01 | 87 | 1016.7 |
| 20260508121039 | 49 | 256 | 0.0 | 3.0 | 0.01 | 0.05 | 0.01 | 87 | 1016.6 |
| 20260508120538 | 48 | 28 | 1.0 | 3.0 | 0.01 | 0.05 | 0.01 | 87 | 1016.5 |
| 20260508120046 | 48 | 23 | 1.0 | 4.0 | 0.00 | 0.04 | 0.00 | 87 | 1016.5 |
| 20260508115538 | 48 | 28 | 2.0 | 4.0 | 0.00 | 0.13 | 0.00 | 87 | 1016.4 |
| 20260508115038 | 47 | 32 | 2.0 | 3.0 | 0.00 | 0.13 | 0.00 | 87 | 1016.3 |
| 20260508114545 | 47 | 0 | 1.0 | 3.0 | 0.00 | 0.13 | 0.00 | 87 | 1016.3 |
| 20260508114039 | 47 | 51 | 1.0 | 3.0 | 0.00 | 0.13 | 0.00 | 88 | 1016.1 |
| 20260508113539 | 46 | 51 | 0.0 | 2.0 | 0.00 | 0.13 | 0.00 | 88 | 1016.1 |
| 20260508113106 | 46 | 0 | 0.0 | 2.0 | 0.00 | 0.13 | 0.00 | 88 | 1016.0 |
| 20260508112538 | 46 | 51 | 0.0 | 2.0 | 0.00 | 0.13 | 0.00 | 88 | 1016.0 |
| 20260508112039 | 46 | 51 | 0.0 | 2.0 | 0.00 | 0.13 | 0.00 | 88 | 1015.8 |
| 20260508111546 | 46 | 48 | 0.0 | 2.0 | 0.00 | 0.13 | 0.00 | 88 | 1015.9 |
| 20260508111038 | 45 | 51 | 0.0 | 2.0 | 0.00 | 0.13 | 0.00 | 88 | 1015.9 |
| 20260508110538 | 45 | 51 | 0.0 | 2.0 | 0.00 | 0.13 | 0.00 | 88 | 1015.7 |
| 20260508110052 | 45 | 51 | 0.0 | 2.0 | 0.00 | 0.13 | 0.00 | 88 | 1015.7 |
| 20260508105538 | 45 | 44 | 0.0 | 3.0 | 0.00 | 0.26 | 0.00 | 88 | 1015.6 |
| 20260508105038 | 45 | 58 | 1.0 | 3.0 | 0.00 | 0.26 | 0.00 | 88 | 1015.5 |
| 20260508104552 | 45 | 46 | 1.0 | 3.0 | 0.00 | 0.26 | 0.00 | 88 | 1015.4 |
| 20260508104039 | 46 | 0 | 0.0 | 2.0 | 0.00 | 0.26 | 0.00 | 88 | 1015.3 |
| 20260508103539 | 46 | 46 | 0.0 | 1.0 | 0.00 | 0.26 | 0.00 | 88 | 1015.1 |
| 20260508103048 | 46 | 0 | 0.0 | 2.0 | 0.00 | 0.26 | 0.00 | 88 | 1014.9 |
| 20260508102538 | 46 | 46 | 0.0 | 4.0 | 0.00 | 0.26 | 0.00 | 88 | 1014.9 |
| 20260508102043 | 46 | 46 | 1.0 | 4.0 | 0.00 | 0.26 | 0.00 | 88 | 1014.9 |
| 20260508101544 | 46 | 5 | 1.0 | 5.0 | 0.00 | 0.26 | 0.00 | 88 | 1014.9 |
| 20260508101039 | 46 | 69 | 2.0 | 5.0 | 0.00 | 0.26 | 0.00 | 88 | 1014.8 |
| 20260508100538 | 46 | 0 | 0.0 | 2.0 | 0.00 | 0.26 | 0.00 | 88 | 1014.9 |
| 20260508100049 | 46 | 0 | 0.0 | 2.0 | 0.00 | 0.26 | 0.00 | 88 | 1014.8 |
| 20260508095538 | 46 | 64 | 1.0 | 3.0 | 0.00 | 0.31 | 0.00 | 88 | 1014.8 |
| 20260508095039 | 46 | 43 | 1.0 | 3.0 | 0.00 | 0.31 | 0.00 | 88 | 1014.8 |
| 20260508094544 | 46 | 19 | 0.0 | 4.0 | 0.00 | 0.31 | 0.00 | 88 | 1014.8 |
| 20260508094038 | 46 | 38 | 1.0 | 4.0 | 0.00 | 0.31 | 0.00 | 88 | 1014.9 |
| 20260508093538 | 46 | 22 | 2.0 | 4.0 | 0.00 | 0.31 | 0.00 | 88 | 1014.8 |
| 20260508093053 | 46 | 61 | 0.0 | 2.0 | 0.00 | 0.31 | 0.00 | 88 | 1014.7 |
| 20260508092542 | 46 | 70 | 0.0 | 2.0 | 0.00 | 0.31 | 0.00 | 88 | 1014.7 |
| 20260508092039 | 47 | 0 | 0.0 | 2.0 | 0.00 | 0.31 | 0.00 | 88 | 1014.6 |
| 20260508091551 | 47 | 70 | 0.0 | 2.0 | 0.00 | 0.31 | 0.00 | 88 | 1014.6 |
| 20260508091042 | 47 | 70 | 1.0 | 3.0 | 0.00 | 0.31 | 0.00 | 92 | 1014.5 |
| 20260508090539 | 47 | 24 | 1.0 | 3.0 | 0.00 | 0.31 | 0.00 | 88 | 1014.6 |
| 20260508090051 | 47 | 0 | 0.0 | 2.0 | 0.00 | 0.31 | 0.00 | 88 | 1014.5 |
| 20260508085538 | 47 | 0 | 0.0 | 2.0 | 0.00 | 0.32 | 0.00 | 88 | 1014.4 |
| 20260508085041 | 47 | 57 | 0.0 | 2.0 | 0.00 | 0.32 | 0.00 | 88 | 1014.5 |
| 20260508084548 | 47 | 57 | 1.0 | 3.0 | 0.00 | 0.32 | 0.00 | 88 | 1014.4 |
| 20260508084039 | 47 | 57 | 0.0 | 4.0 | 0.00 | 0.32 | 0.00 | 88 | 1014.5 |
| 20260508083539 | 47 | 0 | 1.0 | 4.0 | 0.00 | 0.32 | 0.00 | 88 | 1014.4 |
| 20260508083104 | 47 | 43 | 2.0 | 3.0 | 0.00 | 0.32 | 0.00 | 88 | 1014.4 |
| 20260508082538 | 48 | 39 | 1.0 | 3.0 | 0.00 | 0.32 | 0.00 | 88 | 1014.5 |
| 20260508082038 | 48 | 60 | 0.0 | 2.0 | 0.00 | 0.32 | 0.00 | 88 | 1014.4 |
| 20260508081551 | 48 | 60 | 0.0 | 2.0 | 0.00 | 0.32 | 0.00 | 88 | 1014.4 |
| 20260508081038 | 48 | 60 | 1.0 | 3.0 | 0.00 | 0.32 | 0.00 | 87 | 1014.3 |
| 20260508080541 | 48 | 55 | 1.0 | 3.0 | 0.00 | 0.32 | 0.00 | 87 | 1014.5 |
| 20260508080049 | 48 | 42 | 1.0 | 2.0 | 0.00 | 0.32 | 0.00 | 87 | 1014.6 |
| 20260508075538 | 48 | 71 | 0.0 | 2.0 | 0.00 | 0.33 | 0.00 | 87 | 1014.5 |
| 20260508075038 | 48 | 0 | 0.0 | 2.0 | 0.00 | 0.33 | 0.00 | 87 | 1014.5 |
| 20260508074552 | 48 | 0 | 0.0 | 2.0 | 0.00 | 0.33 | 0.00 | 87 | 1014.5 |
| 20260508074041 | 48 | 71 | 0.0 | 2.0 | 0.00 | 0.33 | 0.00 | 87 | 1014.5 |
| 20260508073539 | 48 | 72 | 0.0 | 2.0 | 0.00 | 0.33 | 0.00 | 87 | 1014.4 |
| 20260508073047 | 48 | 120 | 0.0 | 2.0 | 0.00 | 0.33 | 0.00 | 87 | 1014.6 |
| 20260508072538 | 48 | 120 | 1.0 | 3.0 | 0.00 | 0.33 | 0.00 | 88 | 1014.6 |
| 20260508072038 | 48 | 120 | 1.0 | 3.0 | 0.00 | 0.33 | 0.00 | 88 | 1014.6 |
| 20260508071551 | 49 | 120 | 1.0 | 3.0 | 0.00 | 0.33 | 0.00 | 88 | 1014.6 |
| 20260508071038 | 49 | 0 | 0.0 | 2.0 | 0.00 | 0.33 | 0.00 | 87 | 1014.6 |
| 20260508070541 | 49 | 0 | 0.0 | 2.0 | 0.00 | 0.33 | 0.00 | 88 | 1014.4 |
| 20260508070054 | 49 | 43 | 0.0 | 3.0 | 0.00 | 0.33 | 0.00 | 87 | 1014.6 |
| 20260508065538 | 49 | 0 | 0.0 | 3.0 | 0.00 | 0.39 | 0.00 | 87 | 1014.6 |
| 20260508065038 | 49 | 63 | 0.0 | 2.0 | 0.00 | 0.39 | 0.00 | 87 | 1014.6 |
| 20260508064544 | 49 | 78 | 1.0 | 2.0 | 0.00 | 0.39 | 0.00 | 87 | 1014.6 |
| 20260508064040 | 50 | 71 | 0.0 | 2.0 | 0.00 | 0.39 | 0.00 | 87 | 1014.8 |
| 20260508063539 | 50 | 71 | 1.0 | 3.0 | 0.00 | 0.39 | 0.00 | 87 | 1014.7 |
| 20260508063050 | 50 | 0 | 0.0 | 3.0 | 0.00 | 0.39 | 0.00 | 87 | 1014.9 |
| 20260508062538 | 50 | 20 | 1.0 | 3.0 | 0.00 | 0.39 | 0.00 | 87 | 1015.0 |
| 20260508062039 | 50 | 37 | 0.0 | 2.0 | 0.00 | 0.39 | 0.00 | 88 | 1015.0 |
| 20260508061550 | 50 | 90 | 1.0 | 2.0 | 0.00 | 0.39 | 0.00 | 88 | 1014.9 |
| 20260508061039 | 50 | 90 | 1.0 | 2.0 | 0.00 | 0.39 | 0.00 | 88 | 1014.9 |
| 20260508060538 | 50 | 0 | 0.0 | 2.0 | 0.00 | 0.39 | 0.00 | 87 | 1014.9 |
| 20260508060048 | 50 | 0 | 0.0 | 2.0 | 0.00 | 0.39 | 0.00 | 87 | 1015.0 |
| 20260508055540 | 50 | 86 | 0.0 | 2.0 | 0.00 | 0.49 | 0.00 | 88 | 1014.9 |
| 20260508055039 | 51 | 86 | 1.0 | 2.0 | 0.00 | 0.49 | 0.00 | 87 | 1014.9 |
| 20260508054556 | 51 | 86 | 1.0 | 2.0 | 0.00 | 0.49 | 0.00 | 87 | 1014.9 |
| 20260508054041 | 51 | 73 | 1.0 | 2.0 | 0.00 | 0.49 | 0.00 | 87 | 1014.9 |
| 20260508053540 | 52 | 66 | 1.0 | 3.0 | 0.00 | 0.49 | 0.00 | 87 | 1014.7 |
| 20260508053047 | 52 | 31 | 0.0 | 3.0 | 0.00 | 0.49 | 0.00 | 87 | 1014.7 |
| 20260508052539 | 52 | 14 | 1.0 | 4.0 | 0.00 | 0.49 | 0.00 | 87 | 1014.6 |
| 20260508052040 | 52 | 341 | 2.0 | 4.0 | 0.00 | 0.49 | 0.00 | 87 | 1014.7 |
| 20260508051546 | 52 | 315 | 2.0 | 6.0 | 0.00 | 0.49 | 0.00 | 87 | 1014.8 |
| 20260508051042 | 52 | 290 | 2.0 | 6.0 | 0.00 | 0.49 | 0.00 | 87 | 1014.8 |
| 20260508050541 | 52 | 309 | 2.0 | 4.0 | 0.00 | 0.49 | 0.00 | 87 | 1014.8 |
| 20260508050051 | 52 | 281 | 2.0 | 4.0 | 0.00 | 0.49 | 0.00 | 87 | 1014.9 |
| 20260508045543 | 52 | 283 | 2.0 | 4.0 | 0.00 | 0.65 | 0.00 | 87 | 1014.9 |
| 20260508045040 | 53 | 315 | 2.0 | 4.0 | 0.00 | 0.65 | 0.00 | 86 | 1014.7 |
| 20260508044544 | 53 | 336 | 2.0 | 4.0 | 0.00 | 0.65 | 0.00 | 86 | 1014.8 |
| 20260508044041 | 53 | 13 | 1.0 | 3.0 | 0.00 | 0.65 | 0.00 | 86 | 1014.8 |
| 20260508043540 | 53 | 0 | 0.0 | 2.0 | 0.00 | 0.65 | 0.00 | 87 | 1014.9 |
| 20260508043046 | 53 | 0 | 0.0 | 1.0 | 0.00 | 0.65 | 0.00 | 87 | 1014.5 |
| 20260508042540 | 53 | 0 | 0.0 | 1.0 | 0.00 | 0.65 | 0.00 | 87 | 1014.6 |
| 20260508042041 | 53 | 0 | 0.0 | 3.0 | 0.00 | 0.65 | 0.00 | 87 | 1014.6 |
| 20260508041548 | 53 | 0 | 0.0 | 3.0 | 0.00 | 0.65 | 0.00 | 87 | 1014.5 |
| 20260508041040 | 53 | 34 | 2.0 | 4.0 | 0.00 | 0.65 | 0.00 | 87 | 1014.4 |
| 20260508040540 | 53 | 33 | 2.0 | 4.0 | 0.00 | 0.65 | 0.00 | 87 | 1014.5 |
| 20260508040051 | 54 | 30 | 1.0 | 3.0 | 0.00 | 0.65 | 0.00 | 87 | 1014.4 |
| 20260508035539 | 54 | 42 | 1.0 | 2.0 | 0.00 | 0.73 | 0.65 | 87 | 1014.4 |
| 20260508035039 | 54 | 49 | 0.0 | 2.0 | 0.00 | 0.73 | 0.65 | 87 | 1014.4 |
| 20260508034548 | 54 | 49 | 0.0 | 2.0 | 0.00 | 0.73 | 0.65 | 87 | 1014.5 |
| 20260508034038 | 54 | 0 | 0.0 | 2.0 | 0.00 | 0.73 | 0.65 | 87 | 1014.4 |
| 20260508033538 | 54 | 49 | 0.0 | 2.0 | 0.00 | 0.73 | 0.65 | 87 | 1014.4 |
| 20260508033048 | 54 | 29 | 0.0 | 2.0 | 0.00 | 0.73 | 0.65 | 87 | 1014.3 |
| 20260508032539 | 54 | 29 | 0.0 | 2.0 | 0.00 | 0.73 | 0.65 | 87 | 1014.4 |
| 20260508032043 | 54 | 42 | 1.0 | 2.0 | 0.00 | 0.73 | 0.65 | 87 | 1014.4 |
| 20260508031546 | 54 | 0 | 0.0 | 0.0 | 0.00 | 0.73 | 0.65 | 87 | 1014.4 |
| 20260508031038 | 54 | 0 | 0.0 | 0.0 | 0.00 | 0.73 | 0.65 | 87 | 1014.5 |
| 20260508030538 | 54 | 0 | 0.0 | 1.0 | 0.00 | 0.73 | 0.65 | 87 | 1014.4 |
| 20260508030048 | 54 | 0 | 0.0 | 1.0 | 0.00 | 0.73 | 0.65 | 87 | 1014.4 |
| 20260508025539 | 54 | 44 | 0.0 | 1.0 | 0.00 | 0.73 | 0.65 | 87 | 1014.3 |
| 20260508025038 | 54 | 0 | 0.0 | 2.0 | 0.00 | 0.73 | 0.65 | 87 | 1014.2 |
| 20260508024554 | 54 | 44 | 0.0 | 2.0 | 0.00 | 0.73 | 0.65 | 87 | 1014.3 |
| 20260508024039 | 54 | 44 | 0.0 | 3.0 | 0.00 | 0.73 | 0.65 | 87 | 1014.2 |
| 20260508023538 | 54 | 352 | 1.0 | 3.0 | 0.00 | 0.73 | 0.65 | 87 | 1014.3 |
| 20260508023051 | 54 | 37 | 1.0 | 4.0 | 0.00 | 0.73 | 0.65 | 87 | 1014.3 |
| 20260508022538 | 54 | 38 | 1.0 | 4.0 | 0.00 | 0.73 | 0.65 | 87 | 1014.3 |
| 20260508022039 | 54 | 85 | 0.0 | 2.0 | 0.00 | 0.73 | 0.65 | 87 | 1014.2 |
| 20260508021552 | 54 | 0 | 1.0 | 2.0 | 0.00 | 0.73 | 0.65 | 87 | 1014.0 |
| 20260508021038 | 54 | 0 | 0.0 | 2.0 | 0.00 | 0.73 | 0.65 | 87 | 1014.2 |
| 20260508020540 | 54 | 85 | 1.0 | 2.0 | 0.00 | 0.73 | 0.65 | 87 | 1014.0 |
| 20260508020053 | 54 | 85 | 0.0 | 2.0 | 0.00 | 0.73 | 0.65 | 87 | 1014.1 |
| 20260508015538 | 55 | 85 | 0.0 | 2.0 | 0.00 | 0.74 | 0.65 | 87 | 1014.0 |
| 20260508015038 | 55 | 0 | 1.0 | 2.0 | 0.00 | 0.74 | 0.65 | 87 | 1013.9 |
| 20260508014552 | 55 | 90 | 0.0 | 2.0 | 0.00 | 0.74 | 0.65 | 87 | 1013.8 |
| 20260508014037 | 55 | 0 | 1.0 | 2.0 | 0.00 | 0.74 | 0.65 | 87 | 1013.8 |
| 20260508013541 | 55 | 46 | 1.0 | 2.0 | 0.00 | 0.74 | 0.65 | 87 | 1013.7 |
| 20260508013052 | 55 | 0 | 0.0 | 2.0 | 0.00 | 0.74 | 0.65 | 87 | 1013.8 |
| 20260508012538 | 56 | 61 | 0.0 | 2.0 | 0.00 | 0.74 | 0.65 | 87 | 1013.7 |
| 20260508012039 | 56 | 61 | 0.0 | 3.0 | 0.00 | 0.74 | 0.65 | 87 | 1013.6 |
| 20260508011552 | 56 | 58 | 1.0 | 3.0 | 0.00 | 0.74 | 0.65 | 87 | 1013.6 |
| 20260508011038 | 56 | 0 | 0.0 | 2.0 | 0.00 | 0.74 | 0.65 | 87 | 1013.7 |
| 20260508010538 | 56 | 61 | 1.0 | 2.0 | 0.00 | 0.74 | 0.65 | 87 | 1013.5 |
| 20260508010048 | 57 | 42 | 0.0 | 2.0 | 0.00 | 0.74 | 0.65 | 87 | 1013.5 |
| 20260508005540 | 57 | 0 | 0.0 | 2.0 | 0.00 | 0.77 | 0.65 | 86 | 1013.4 |